STARLINK-2090 (47677 NORAD) Tracking and Keplerian Element Data

This shows tracking and keplerian element data for the satellite.

Feedback or suggestion? Click here.




ElementValue
Catalog47677
NameSTARLINK-2090
Epoch Orbit281
Epoch Day60.16668981
Epoch Year2021
RAAN37.4683
Inclination53.0514
Eccentricity0.0001353
Argument of Perigee56.7437
Mean Anonmoly119.4174
Mean Motion15.71950819
Decay Rate-0.01055375
L11 47677U 21012BK 21060.16668981 -.01055375 00000-0 -88163-2 0 9997
L22 47677 53.0514 37.4683 0001353 56.7437 119.4174 15.71950819 2810

Live tracking and technical data element details for STARLINK-2090 (NORAD 47677). STARLINK-2090 can be tracked NOW for your location showing map with azimuth and elevation plus other details from your city location.

Track the satellite on the map from your city or location and see movement details for azimuth, elevation, latitude, longitude, range, height, and movement on the map or in text.







IsCatalogInMostPopularTable: catalog: 47677, numindb: 4
Update: records affected: 1



GetName: 47677 STARLINK-2090

Hit Count: updated at: Mon, 01 Mar 2021 16:23:56 GMT